Find Starlink 32348

NORAD ID: 61631 Int'l Des: 2024-191 Owner: SPXS Country: US Constellation: starlink operational
LEOCIRCULAR

Live Position

Loading 3D Globe...

About Starlink 32348

Description loading...

Upcoming Passes

Passes for default location (London). Set your location on the main map for personalized predictions.

Altitude History

Loading altitude history...

Two-Line Element Set

1 61631U 24191L 26110.46031691 -.00001208 00000-0 -34388-4 0 9997
2 61631 43.0039 282.1604 0001070 267.4322 92.6407 15.27571830 83889
Epoch: Apr 20, 2026 • Age: 11 hours

Current Status

Altitude 484.6 km
Velocity 7.63 km/s
Sub-Earth Point 32.34°N, 139.14°E
Launch Date Oct 23, 2024
Age 1.4 years
Type internet

Technical Details

Classification Payload
Mass 730.00 kg
Dry Mass 700.00 kg
Total Mass 730.00 kg
Length 0.30 m
Diameter 4.10 m
Span 29.00 m
Shape Box + pan
Manufacturer SPXS
Bus Type Starlink V2M
Phase Status In Orbit
Owner/State SPXS/US

Most Searched